This is the latest recevied weather packets stored in our database for station/object KK4KTV-13. If no packets are shown the sender has not sent any weather packets the latest 10 day(s).
| Time | Temp. | Humidity | Pressure | Rain* | Wind** | Luminosity | Snow |
|---|---|---|---|---|---|---|---|
| 1777649355 | 16.67° C | 51% | 1013 hPa | 0 mm | - | 655 W/m² | - |
| 1777649053 | 16.67° C | 52% | 1013.1 hPa | 0 mm | - | 645 W/m² | - |
| 1777648750 | 16.67° C | 49% | 1013.1 hPa | 0 mm | - | 637 W/m² | - |
| 1777648446 | 16.11° C | 53% | 1013.1 hPa | 0 mm | - | 626 W/m² | - |
| 1777648143 | 16.11° C | 53% | 1012.9 hPa | 0 mm | - | 616 W/m² | - |
| 1777647838 | 16.67° C | 57% | 1013 hPa | 0 mm | - | 605 W/m² | - |
| 1777647535 | 16.11° C | 60% | 1013.1 hPa | 0 mm | - | 598 W/m² | - |
| 1777647232 | 15.56° C | 59% | 1013.1 hPa | 0 mm | - | 547 W/m² | - |
| 1777646929 | 15.56° C | 60% | 1013.2 hPa | 0 mm | - | 576 W/m² | - |
| 1777646624 | 15.56° C | 61% | 1013.1 hPa | 0 mm | - | 564 W/m² | - |
| 1777646321 | 15.56° C | 61% | 1013.1 hPa | 0 mm | - | 554 W/m² | - |
| 1777646018 | 15.56° C | 61% | 1012.9 hPa | 0 mm | - | 543 W/m² | - |
| 1777645715 | 15° C | 62% | 1013.1 hPa | 0 mm | - | 530 W/m² | - |
| 1777645411 | 15° C | 68% | 1013 hPa | 0 mm | - | 522 W/m² | - |
| 1777645107 | 14.44° C | 71% | 1013 hPa | 0 mm | - | 508 W/m² | - |
| 1777644804 | 13.89° C | 72% | 1012.8 hPa | 0 mm | - | 495 W/m² | - |
| 1777644502 | 13.89° C | 77% | 1013 hPa | 0 mm | - | 479 W/m² | - |
| 1777644198 | 13.33° C | 82% | 1012.9 hPa | 0 mm | - | 467 W/m² | - |
| 1777643894 | 12.22° C | 87% | 1013.2 hPa | 0 mm | - | 452 W/m² | - |
| 1777643592 | 11.67° C | 91% | 1013.1 hPa | 0 mm | - | 438 W/m² | - |
| 1777643289 | 11.11° C | 92% | 1013.2 hPa | 0 mm | - | 439 W/m² | - |
| 1777642985 | 10.56° C | 97% | 1013.2 hPa | 0 mm | - | 431 W/m² | - |
| 1777642681 | 10.56° C | 99% | 1013.3 hPa | 0 mm | - | 421 W/m² | - |
| 1777642379 | 10° C | 99% | 1013.3 hPa | 0 mm | - | 409 W/m² | - |
| 1777642076 | 9.44° C | 99% | 1013.3 hPa | 0 mm | - | 396 W/m² | - |
* Rain latest hour (hover to see other rain measurements)
** Current wind speed in m/s (hover to see current wind gust speed)